Change the Weather History Date:

Thursday, January 31, 2013

  Actual Average Record
Temperature  
Mean Temperature 40 °F -  
Max Temperature 55 °F 52 °F 73 °F (1989)
Min Temperature 24 °F 29 °F -7 °F (1949)
Degree Days  
Heating Degree Days 24    
Moisture  
Dew Point 20 °F    
Average Humidity 54    
Maximum Humidity 72    
Minimum Humidity 23    
Precipitation  
Precipitation 0.00 in - - ()
Sea Level Pressure  
Sea Level Pressure 30.21 in    
Wind  
Wind Speed 6 mph (NNE)    
Max Wind Speed 15 mph    
Max Gust Speed 25 mph    
Visibility 10 miles    
Events      
Averages and records for this station are not official NWS values.
T = Trace of Precipitation, MM = Missing Value Source: NWS Daily Summary

Daily Weather History Graph

Daily Weather History Graph

Search for Another Location

Airport or City:

Trip Planner

Search our weather history database for the weather conditions in past years. The results will help you decide how hot, cold, wet, or windy it might be!

Date:

Astronomy

Jan. 31, 2013 Rise Set
Actual Time 7:30 AM CST 5:56 PM CST
Civil Twilight 7:03 AM CST 6:23 PM CST
Nautical Twilight 6:32 AM CST 6:53 PM CST
Astronomical Twilight 6:02 AM CST 7:23 PM CST
Moon 10:47 PM CST (1/31) 9:41 AM CST (1/31)
Length of Visible Light 11h 19m
Length of Day
10h 25m
Waning Gibbous, 79% of the Moon is Illuminated
Jan 31
Waning Gibbous
Feb 3
Last Quarter
Feb 10
New
Feb 17
First Quarter
Feb 25
Full

Hourly Weather History & Observations

Time (CST) Temp. Windchill Dew Point Humidity Pressure Visibility Wind Dir Wind Speed Gust Speed Precip Events Conditions
12:53 AM 32.0 °F 27.5 °F 21.0 °F 64% 30.06 in 10.0 mi SSW 4.6 mph - N/A   Clear
1:53 AM 32.0 °F 26.4 °F 21.0 °F 64% 30.06 in 10.0 mi SW 5.8 mph - N/A   Clear
2:53 AM 28.9 °F 23.9 °F 21.0 °F 72% 30.06 in 10.0 mi South 4.6 mph - N/A   Clear
3:53 AM 28.9 °F 22.8 °F 21.0 °F 72% 30.05 in 10.0 mi South 5.8 mph - N/A   Clear
4:53 AM 30.0 °F 24.1 °F 21.0 °F 69% 30.04 in 10.0 mi South 5.8 mph - N/A   Clear
5:53 AM 30.9 °F 25.2 °F 19.9 °F 64% 30.04 in 10.0 mi SSW 5.8 mph - N/A   Clear
6:53 AM 32.0 °F 27.5 °F 19.9 °F 61% 30.06 in 10.0 mi South 4.6 mph - N/A   Clear
7:53 AM 33.1 °F 30.0 °F 19.0 °F 56% 30.10 in 10.0 mi SSW 3.5 mph - N/A   Clear
8:53 AM 39.0 °F 35.7 °F 21.0 °F 49% 30.10 in 10.0 mi SW 4.6 mph - N/A   Clear
9:53 AM 43.0 °F 41.3 °F 21.0 °F 42% 30.10 in 10.0 mi WSW 3.5 mph - N/A   Clear
10:53 AM 48.9 °F - 21.0 °F 33% 30.14 in 10.0 mi North 8.1 mph - N/A   Clear
11:53 AM 51.1 °F - 19.9 °F 29% 30.13 in 10.0 mi NNE 5.8 mph - N/A   Clear
12:53 PM 55.0 °F - 18.0 °F 23% 30.13 in 10.0 mi NW 6.9 mph - N/A   Clear
1:53 PM 53.1 °F - 25.0 °F 34% 30.15 in 10.0 mi NNE 11.5 mph 21.9 mph N/A   Clear
2:53 PM 50.0 °F - 28.0 °F 43% 30.17 in 10.0 mi NE 15.0 mph 25.3 mph N/A   Clear
3:53 PM 46.9 °F - 27.0 °F 46% 30.23 in 10.0 mi NE 13.8 mph 25.3 mph N/A   Clear
4:53 PM 43.0 °F 36.8 °F 26.1 °F 51% 30.28 in 10.0 mi NNE 11.5 mph 19.6 mph N/A   Clear
5:53 PM 36.0 °F 29.0 °F 25.0 °F 64% 30.34 in 10.0 mi NE 9.2 mph 18.4 mph N/A   Clear
6:53 PM 30.9 °F 22.2 °F 18.0 °F 59% 30.41 in 10.0 mi NE 10.4 mph 20.7 mph N/A   Clear
7:53 PM 28.9 °F 25.2 °F 18.0 °F 64% 30.45 in 10.0 mi Variable 3.5 mph - N/A   Clear
8:53 PM 28.0 °F 22.8 °F 16.0 °F 61% 30.46 in 10.0 mi NNE 4.6 mph - N/A   Clear
9:53 PM 27.0 °F 21.6 °F 15.1 °F 61% 30.46 in 10.0 mi NNE 4.6 mph - N/A   Clear
10:53 PM 26.1 °F 19.4 °F 14.0 °F 60% 30.45 in 10.0 mi NNE 5.8 mph - N/A   Clear
11:53 PM 24.1 °F 16.0 °F 10.0 °F 55% 30.45 in 10.0 mi ENE 6.9 mph - N/A   Clear